Fruitland, IA

1:17 PM CDT on September 28, 2016 (GMT -0500)
Muscatine Municipal

Weather History for KMUT - October, 2012

Change the Weather History Date:

Wednesday, October 17, 2012

  Actual Average Record
Temperature  
Mean Temperature 58 °F -  
Max Temperature 66 °F 65 °F 87 °F (1950)
Min Temperature 48 °F 41 °F 25 °F (1976)
Degree Days  
Heating Degree Days 7    
Growing Degree Days 8 (Base 50)    
Moisture  
Dew Point 48 °F    
Average Humidity 66    
Maximum Humidity 88    
Minimum Humidity 45    
Precipitation  
Precipitation 0.34 in - - ()
Sea Level Pressure  
Sea Level Pressure 29.42 in    
Wind  
Wind Speed 10 mph (SSW)    
Max Wind Speed 20 mph    
Max Gust Speed 26 mph    
Visibility 10 miles    
Events Rain    
Averages and records for this station are not official NWS values.
T = Trace of Precipitation, MM = Missing Value Source: NWS Daily Summary

Daily Weather History Graph

Daily Weather History Graph

Search for Another Location

Airport or City:

Trip Planner

Search our weather history database for the weather conditions in past years. The results will help you decide how hot, cold, wet, or windy it might be!

Date:

Astronomy

Oct. 17, 2012 Rise Set
Actual Time 7:19 AM CDT 6:19 PM CDT
Civil Twilight 6:51 AM CDT 6:47 PM CDT
Nautical Twilight 6:19 AM CDT 7:19 PM CDT
Astronomical Twilight 5:47 AM CDT 7:51 PM CDT
Moon 9:55 AM CDT (10/17) 7:53 PM CDT (10/17)
Length of Visible Light 11h 56m
Length of Day
11h 00m
Waxing Crescent, 7% of the Moon is Illuminated
Oct 17
Waxing Crescent
Oct 21
First Quarter
Oct 29
Full
Nov 6
Last Quarter
Nov 13
New

Hourly Weather History & Observations

Time (CDT) Temp. Dew Point Humidity Pressure Visibility Wind Dir Wind Speed Gust Speed Precip Events Conditions
12:15 AM 66.2 °F 44.6 °F 46% 29.49 in 10.0 mi SSW 11.5 mph 17.3 mph N/A   Clear
12:35 AM 66.2 °F 44.6 °F 46% 29.49 in 10.0 mi SSW 12.7 mph 18.4 mph N/A   Clear
12:55 AM 64.4 °F 44.6 °F 49% 29.49 in 10.0 mi SSW 10.4 mph - N/A   Clear
1:15 AM 64.4 °F 42.8 °F 45% 29.49 in 10.0 mi SSW 11.5 mph - N/A   Clear
1:35 AM 62.6 °F 44.6 °F 52% 29.48 in 10.0 mi South 8.1 mph - N/A   Clear
1:55 AM 62.6 °F 44.6 °F 52% 29.48 in 10.0 mi South 6.9 mph - N/A   Clear
2:15 AM 60.8 °F 44.6 °F 55% 29.48 in 10.0 mi South 9.2 mph - N/A   Clear
2:35 AM 62.6 °F 44.6 °F 52% 29.48 in 10.0 mi South 8.1 mph - N/A   Clear
2:55 AM 62.6 °F 44.6 °F 52% 29.48 in 10.0 mi South 9.2 mph - N/A   Clear
3:15 AM 62.6 °F 44.6 °F 52% 29.47 in 10.0 mi South 10.4 mph - N/A   Clear
3:35 AM 60.8 °F 44.6 °F 55% 29.47 in 10.0 mi South 8.1 mph - N/A   Clear
3:55 AM 60.8 °F 44.6 °F 55% 29.46 in 10.0 mi South 8.1 mph - N/A   Clear
4:15 AM 60.8 °F 44.6 °F 55% 29.46 in 10.0 mi SSE 3.5 mph - N/A   Clear
4:35 AM 60.8 °F 44.6 °F 55% 29.45 in 10.0 mi SSE 3.5 mph - N/A   Clear
4:55 AM 60.8 °F 44.6 °F 55% 29.45 in 10.0 mi South 5.8 mph - N/A   Clear
5:15 AM 60.8 °F 44.6 °F 55% 29.44 in 10.0 mi SE 4.6 mph - N/A   Clear
5:35 AM 60.8 °F 44.6 °F 55% 29.44 in 10.0 mi SSE 6.9 mph - N/A   Clear
5:55 AM 60.8 °F 44.6 °F 55% 29.44 in 10.0 mi SSE 9.2 mph - N/A   Clear
6:15 AM 60.8 °F 44.6 °F 55% 29.44 in 10.0 mi SSE 6.9 mph - N/A   Clear
6:35 AM 60.8 °F 44.6 °F 55% 29.44 in 10.0 mi SSE 9.2 mph - N/A   Clear
6:55 AM 60.8 °F 46.4 °F 59% 29.44 in 10.0 mi SSE 9.2 mph - N/A   Clear
7:15 AM 60.8 °F 46.4 °F 59% 29.44 in 10.0 mi South 9.2 mph - N/A   Clear
7:35 AM 60.8 °F 46.4 °F 59% 29.44 in 10.0 mi South 9.2 mph - N/A   Clear
7:55 AM 60.8 °F 46.4 °F 59% 29.43 in 10.0 mi SSE 10.4 mph - N/A   Clear
8:15 AM 60.8 °F 46.4 °F 59% 29.43 in 10.0 mi South 10.4 mph - N/A   Clear
8:35 AM 60.8 °F 46.4 °F 59% 29.43 in 10.0 mi South 11.5 mph - N/A   Scattered Clouds
8:55 AM 62.6 °F 48.2 °F 59% 29.43 in 10.0 mi South 11.5 mph - N/A   Scattered Clouds
9:15 AM 62.6 °F 48.2 °F 59% 29.43 in 10.0 mi South 10.4 mph 16.1 mph N/A   Scattered Clouds
9:35 AM 64.4 °F 48.2 °F 56% 29.42 in 10.0 mi South 13.8 mph 18.4 mph N/A   Scattered Clouds
9:55 AM 66.2 °F 48.2 °F 52% 29.41 in 10.0 mi SSW 13.8 mph 24.2 mph N/A   Mostly Cloudy
10:15 AM 64.4 °F 48.2 °F 56% 29.42 in 10.0 mi South 15.0 mph 21.9 mph N/A   Overcast
10:35 AM 64.4 °F 48.2 °F 56% 29.42 in 10.0 mi South 12.7 mph - N/A   Mostly Cloudy
10:55 AM 66.2 °F 50.0 °F 56% 29.42 in 10.0 mi South 13.8 mph 18.4 mph N/A   Scattered Clouds
11:15 AM 64.4 °F 48.2 °F 56% 29.43 in 10.0 mi SSW 16.1 mph - N/A   Scattered Clouds
11:35 AM 64.4 °F 50.0 °F 59% 29.43 in 10.0 mi SSW 11.5 mph 17.3 mph N/A   Scattered Clouds
11:55 AM 66.2 °F 50.0 °F 56% 29.43 in 10.0 mi SSW 17.3 mph 23.0 mph N/A   Mostly Cloudy
12:15 PM 64.4 °F 50.0 °F 59% 29.42 in 10.0 mi SSW 12.7 mph - N/A   Overcast
12:35 PM 66.2 °F 50.0 °F 56% 29.43 in 10.0 mi SW 15.0 mph 21.9 mph N/A   Overcast
12:55 PM 64.4 °F 51.8 °F 64% 29.43 in 10.0 mi SW 12.7 mph - N/A   Light Drizzle
1:15 PM 62.6 °F 53.6 °F 72% 29.42 in 10.0 mi WSW 8.1 mph - N/A Rain Light Rain
1:35 PM 62.6 °F 53.6 °F 72% 29.39 in 10.0 mi SSW 5.8 mph - N/A   Overcast
1:55 PM 62.6 °F 53.6 °F 72% 29.38 in 10.0 mi SSW 5.8 mph - N/A   Drizzle
2:15 PM 62.6 °F 55.4 °F 77% 29.37 in 10.0 mi South 4.6 mph - N/A   Overcast
2:35 PM 62.6 °F 55.4 °F 77% 29.36 in 10.0 mi SSW 4.6 mph - N/A   Overcast
2:55 PM 62.6 °F 55.4 °F 77% 29.38 in 10.0 mi South 10.4 mph - N/A Rain Rain
3:15 PM 62.6 °F 55.4 °F 77% 29.37 in 7.0 mi South 5.8 mph - 0.03 in Rain Rain
3:35 PM 60.8 °F 55.4 °F 82% 29.37 in 10.0 mi SSW 4.6 mph - 0.05 in Rain Light Rain
3:55 PM 60.8 °F 55.4 °F 82% 29.36 in 10.0 mi SSW 3.5 mph - 0.06 in Rain Rain
4:15 PM 60.8 °F 55.4 °F 82% 29.35 in 10.0 mi West 3.5 mph - N/A Rain Light Rain
4:35 PM 60.8 °F 55.4 °F 82% 29.36 in 7.0 mi West 12.7 mph - 0.02 in Rain Rain
4:55 PM 57.2 °F 53.6 °F 88% 29.36 in 10.0 mi WNW 15.0 mph - 0.05 in Rain Light Rain
5:15 PM 57.2 °F 51.8 °F 82% 29.39 in 10.0 mi WNW 19.6 mph 24.2 mph 0.01 in Rain Light Rain
5:35 PM 55.4 °F 51.8 °F 88% 29.40 in 10.0 mi West 16.1 mph 26.5 mph 0.08 in Rain Rain
5:55 PM 55.4 °F 51.8 °F 88% 29.40 in 10.0 mi WNW 12.7 mph - 0.11 in Rain Rain
6:15 PM 55.4 °F 50.0 °F 82% 29.40 in 10.0 mi WNW 10.4 mph - 0.03 in Rain Light Rain
6:35 PM 55.4 °F 50.0 °F 82% 29.41 in 10.0 mi West 9.2 mph - 0.04 in Rain Light Rain
6:55 PM 55.4 °F 50.0 °F 82% 29.41 in 10.0 mi West 8.1 mph - 0.06 in Rain Light Rain
7:15 PM 55.4 °F 50.0 °F 82% 29.40 in 10.0 mi WNW 11.5 mph - 0.04 in Rain Rain
7:35 PM 55.4 °F 50.0 °F 82% 29.41 in 10.0 mi West 11.5 mph - 0.06 in Rain Light Rain
7:55 PM 55.4 °F 50.0 °F 82% 29.40 in 10.0 mi West 12.7 mph - 0.06 in   Mostly Cloudy
8:15 PM 53.6 °F 48.2 °F 82% 29.42 in 10.0 mi West 10.4 mph 21.9 mph N/A   Scattered Clouds
8:35 PM 51.8 °F 46.4 °F 82% 29.41 in 10.0 mi West 8.1 mph 11.5 mph N/A   Scattered Clouds
8:55 PM 53.6 °F 46.4 °F 77% 29.42 in 10.0 mi West 17.3 mph 24.2 mph N/A   Clear
9:15 PM 51.8 °F 46.4 °F 82% 29.41 in 10.0 mi West 15.0 mph - N/A   Clear
9:35 PM 51.8 °F 44.6 °F 76% 29.40 in 10.0 mi West 13.8 mph 21.9 mph N/A   Clear
9:55 PM 50.0 °F 42.8 °F 76% 29.41 in 10.0 mi West 17.3 mph 21.9 mph N/A   Clear
10:15 PM 51.8 °F 39.2 °F 62% 29.42 in 10.0 mi West 12.7 mph 18.4 mph N/A   Scattered Clouds
10:35 PM 51.8 °F 39.2 °F 62% 29.44 in 10.0 mi West 6.9 mph - N/A   Scattered Clouds
10:55 PM 51.8 °F 41.0 °F 67% 29.43 in 10.0 mi WSW 9.2 mph - N/A   Overcast
11:15 PM 50.0 °F 41.0 °F 71% 29.43 in 10.0 mi West 9.2 mph - N/A   Scattered Clouds
11:35 PM 50.0 °F 41.0 °F 71% 29.42 in 10.0 mi WSW 11.5 mph - N/A   Mostly Cloudy
11:55 PM 48.2 °F 39.2 °F 71% 29.42 in 10.0 mi West 11.5 mph 17.3 mph N/A   Scattered Clouds